Location: Monrovia
(34.7865°N, 86.7139°W)
Time: 22:01:30
(UTC+00:00)

Cosmos 2369 Rocket - Pass Details

Date: 14 July 2020
Orbit: 830 x 851 km, 71.0° (Epoch: 08 August)

Event Time Altitude Azimuth Distance (km) Brightness Sun altitude
Rises 06:10:08 0° 322° (NW) 3,381 5.9 -33.5°
Reaches altitude 10° 06:13:06 10° 307° (NW) 2,446 4.9 -33.4°
Enters shadow 06:14:43 16° 293° (WNW) 2,051 4.3 -33.4°
